• Processing (Info)

  • MPEC 2023-V229 : 2023 VD8

    The following Minor Planet Electronic Circular may be linked-to from your own Web pages, but must not otherwise be redistributed electronically.

    A form allowing access to any MPEC is at the bottom of this page.


    Read MPEC 2023-V228 Read MPEC 2023-V230


    M.P.E.C. 2023-V229                            Issued 2023 November 13, 11:48 UT
    
         The Minor Planet Electronic Circulars contain information on unusual
             minor planets, routine data on comets and natural satellites,
             and occasional editorial announcements.  They are published
        on behalf of Division F of the International Astronomical Union by the
              Minor Planet Center, Smithsonian Astrophysical Observatory,
                              Cambridge, MA 02138, U.S.A.
    			  
                 Prepared using the Tamkin Foundation Computer Network
    
                                  MPC@CFA.HARVARD.EDU
                URL https://www.minorplanetcenter.net/    ISSN 1523-6714
    
                                    2023 VD8                                 
    
    
    Observations:
         K23V08D*1C2023 11 10.39158005 07 04.876-14 44 53.99         20.23GVEV229G96
         K23V08D 1C2023 11 10.39671105 07 02.672-14 44 38.40         20.40GVEV229G96
         K23V08D 1C2023 11 10.40695805 06 58.291-14 44 06.97         19.96GVEV229G96
         K23V08D KC2023 11 10.46519505 06 33.858-14 41 14.93         20.63GVEV229I52
         K23V08D KC2023 11 10.46716705 06 33.041-14 41 08.92         20.69GVEV229I52
         K23V08D KC2023 11 10.46914105 06 32.216-14 41 02.80         20.50GVEV229I52
         K23V08D KC2023 11 10.47111105 06 31.439-14 40 56.39         20.53GVEV229I52
         K23V08D KC2023 11 10.49379505 06 26.36 -14 38 31.8          20.9 GVEV229474
         K23V08D KC2023 11 10.49628205 06 25.36 -14 38 24.8          20.7 GVEV229474
         K23V08D KC2023 11 10.49876805 06 24.34 -14 38 17.8          21.0 GVEV229474
         K23V08D 1C2023 11 11.03549 05 02 58.22 -14 14 16.4          20.4 VXEV229033
         K23V08D 1C2023 11 11.03659 05 02 57.79 -14 14 14.0          20.5 VXEV229033
         K23V08D 1C2023 11 11.03768 05 02 57.34 -14 14 10.3          20.8 VXEV229033
         K23V08D 1C2023 11 11.03890 05 02 56.90 -14 14 07.9          21.1 VXEV229033
         K23V08D 1C2023 11 13.05790 04 52 00.23 -12 49 05.7          21.1 VXEV229033
         K23V08D 1C2023 11 13.06320 04 51 58.62 -12 48 53.3          20.9 VXEV229033
         K23V08D |C2023 11 13.20786 04 51 18.89 -12 42 18.2          21.2 VuEV229807
         K23V08D |C2023 11 13.21600 04 51 16.44 -12 41 59.9          20.7 VuEV229807
         K23V08D |C2023 11 13.22413 04 51 13.99 -12 41 40.7          21.3 VuEV229807
    
    Observer details:
    033 Karl Schwarzschild Observatory, Tautenburg.  Observers S. Melnikov, C.
        Hogner, F. Ludwig, M. Hartmann, B. Stecklum.  Measurer B. Stecklum.
        1.34-m f/3 Schmidt + CCD.
    474 Mount John Observatory, Lake Tekapo.  Observers A. C. Gilmore, P. M.
        Kilmartin.  Measurer P. M. Kilmartin.  1.0-m f/7.7 reflector + CCD.
    807 Cerro Tololo Observatory, La Serena.  Observers T. Linder, R. Holmes, L.
        Horn.  0.61-m f/6.5 Dall-Kirkham Astrograph + CCD.
    G96 Mt. Lemmon Survey.  Observer J. B. Fazekas.  Measurers E. C. Beshore, D.
        Fay, J. B. Fazekas, D. C. Fuls, A. R. Gibbs, A. D. Grauer, H. Groeller, J.
        K. Hogan, R. A. Kowalski, S. M. Larson, G. J. Leonard, D. Rankin, R. L.
        Seaman, F. C. Shelly, K. W. Wierzchos.  1.5-m reflector + 10K CCD.
    I52 Steward Observatory, Mt. Lemmon Station.  Observer H. Groeller.  Measurers
        E. C. Beshore, D. Fay, J. B. Fazekas, D. C. Fuls, A. R. Gibbs, A. D.
        Grauer, H. Groeller, J. K. Hogan, R. A. Kowalski, S. M. Larson, G. J.
        Leonard, D. Rankin, R. L. Seaman, F. C. Shelly, K. W. Wierzchos.  1.0-m
        prime focus + CCD.
    
    Orbital elements:
    2023 VD8                                                 Earth MOID = 0.0420 AU
    Epoch 2023 Sept. 13.0 TT = JDT 2460200.5                Veres                   
    M 358.02821              (2000.0)            P               Q                  
    n   0.22601858     Peri.  129.64358     +0.90506706     +0.41745067             
    a   2.6691519      Node   205.98739     -0.42431358     +0.87364648             
    e   0.7165255      Incl.   10.67547     -0.02848844     +0.24995352             
    P   4.36           H   23.31          G   0.15           U   8                  
    Residuals in seconds of arc
    231110 G96  0.6+  0.3-    231110 474  0.2-  0.1+    231113 033  0.7-  0.2-
    231110 G96  0.2+  0.1+    231110 474  0.1+  0.1-    231113 033  0.8-  0.0
    231110 G96  0.5-  1.1+    231110 474  0.1+  0.3-    231113 807  0.0   0.0
    231110 I52  0.3-  0.4-    231111 033  0.3+  0.1+    231113 807  0.1+  0.0
    231110 I52  0.2-  0.3-    231111 033  0.2+  0.6-    231113 807 (0.2+  0.9+)
    231110 I52  0.3-  0.0     231111 033  0.3-  0.1+
    231110 I52  0.3+  0.5+    231111 033  0.1+  0.9-
    
    Ephemeris:
    2023 VD8                 a,e,i = 2.67, 0.72, 11                  q = 0.7566
    Date    TT    R. A. (2000) Decl.     Delta      r    Elong.  Phase     V
    2023 10 14    14 36 18.6 -05 52 23   0.1691  0.8414    20.5   155.5    28.7
    ...
    2023 10 29    09 57 03.5 -29 39 40   0.05479 0.9678    60.6   116.6    21.5
    ...
    2023 11 06    05 48 34.1 -19 24 24   0.09754 1.0468   122.2    53.2    20.3
    ...
    2023 11 12    04 57 24.7 -13 30 49   0.1523  1.1089   138.6    36.2    20.9
    2023 11 13    04 52 17.7 -12 50 33   0.1620  1.1194   140.4    34.3    21.0
    2023 11 14    04 47 43.8 -12 13 37   0.1719  1.1300   142.0    32.6    21.1
    ...
    2023 11 20    04 28 09.5 -09 19 46   0.2334  1.1940   148.7    25.4    21.7
    ...
    2023 11 28    04 13 31.4 -06 34 41   0.3217  1.2802   152.3    21.0    22.4
    ...
    2023 12 13    04 01 41.3 -02 38 06   0.5084  1.4420   148.2    21.1    23.7
    
    M. P. C. Staff               (C) Copyright 2023 MPC           M.P.E.C. 2023-V229
    


    Read MPEC 2023-V228 Read MPEC 2023-V230


    MPEC number:

    Enter an MPEC number in one of the following forms:

    • 1997-B01 (the full form)
    • J97B01 (the packed version of the full form)
    • B01 (the abbreviated form)